Regional Weather Roundup
Issued by NWS

Home | Current Version | Previous Version | Text Only | Print | Product List | Glossary Off
Versions: 1 2 3 4 5 6 7 8 9 10 11 12 13 14 15 16 17 18 19 20 21 22 23 24 25 26 27 28 29 30 31 32 33 34 35 36 37 38 39 40 41 42 43 44 45 46 47 48 49 50

000
ASUS43 KLOT 230821
RWRIL

ILLINOIS REGIONAL WEATHER ROUNDUP
NATIONAL WEATHER SERVICE CHICAGO/ROMEOVILLE IL
300 AM CDT SAT MAY 23 2015

NOTE: "FAIR" INDICATES FEW OR NO CLOUDS BELOW 12,000 FEET WITH NO
SIGNIFICANT WEATHER AND/OR OBSTRUCTIONS TO VISIBILITY.

* THESE STATIONS ARE NOT UNDER NWS QUALITY CONTROL. THEY ALSO MAY NOT
  REPORT WEATHER SUCH AS PRECIPITATION OR FOG.

ILZ001-002-007-009-015-016-024-230900-
NORTHWEST ILLINOIS

CITY           SKY/WX    TMP DP  RH WIND       PRES   REMARKS
MOLINE         MOCLDY    54  44  69 E7        30.23S
STERLING*      MOCLDY    55  39  54 E7        30.27S
SAVANNA*       CLOUDY    58  33  38 SE6       30.26S
$$

ILZ003-004-008-010-011-017-018-230900-
NORTH CENTRAL ILLINOIS

CITY           SKY/WX    TMP DP  RH WIND       PRES   REMARKS
ROCKFORD       MOCLDY    50  34  54 SE3       30.31R
FREEPORT*        N/A     47  36  64 E5        30.29S
ROCHELLE*      PTCLDY    50  35  56 SE7       30.29R
DE KALB*       PTCLDY    48  34  58 SE7       30.30R
PERU*          MOCLDY    54  39  56 NE7       30.28S
$$

ILZ005-006-012>014-019>023-230900-
NORTHEAST ILLINOIS

CITY           SKY/WX    TMP DP  RH WIND       PRES   REMARKS
CHICAGO-OHARE  MOCLDY    51  34  52 SE5       30.29R
CHICAGO-MIDWAY MOCLDY    55  39  54 SE5       30.29S
AURORA         MOCLDY    49  36  61 E3        30.29S
LANSING*       MOCLDY    48  40  71 CALM      30.30R
JOLIET*        CLOUDY    55  39  56 E3        30.29R
WAUKEGAN       PTCLDY    43  36  76 SW3       30.29R
DUPAGE AIRPORT PTCLDY    47  34  60 CALM      30.29R
KANKAKEE*      MOCLDY    54  38  53 CALM      30.29S
WHEELING       PTCLDY    46  38  73 CALM      30.31S
MORRIS*        CLOUDY    53  39  60 E3        30.26S
ROMEOVILLE*    MOCLDY    53  37  54 E7        30.29S
NORTHERLY ISL    N/A     52  42  69 CALM        N/A
$$

LMZ740>746-230900-
SOUTHERN LAKE MICHIGAN

STATION/POSITION SKY/WX   TEMP    WIND        PRES    VSBY  WAVE
                          AIR SEA DIR/SP/G                  HT/PER
                          (F)     (DEG/KT/KT) (MB)    (MI)  (FT/S)
SOUTHERN BUOY              44 38  190/  6/  6 1026.7R         0
HARRISON CRIB              56     160/  9/ 10   N/A
BURNHAM HARBOR             52      CALM  /  2   N/A
CALUMET HARBOR             57     110/  4/  8   N/A
BURNS HARBOR               61     120/ 11/ 17 1026.1S
MICHIGAN CITY              53     120/  9/ 10   N/A
MICHIGAN CITY 6N           53 51  130/  4/  6   N/A           1/ 3
ST. JOSEPH                 55 53  170/  8/ 10   N/A           1
$$

ILZ025>027-034>036-040-047-049-050-058-095>099-230900-
WEST-CENTRAL ILLINOIS

CITY           SKY/WX    TMP DP  RH WIND       PRES   REMARKS
QUINCY         CLOUDY    58  53  84 CALM      30.25R
GALESBURG*     MOCLDY    57  52  84 CALM      30.24R
MACOMB*        MOCLDY    54  53  94 CALM      30.27R
JACKSONVILLE*  CLOUDY    62  56  81 CALM      30.25S
PITTSFIELD*    CLOUDY    60  52  76 CALM      30.27R
$$

ILZ028>032-037-038-041>044-048-051>054-059>061-230900-
CENTRAL ILLINOIS

CITY           SKY/WX    TMP DP  RH WIND       PRES   REMARKS
PONTIAC        MOCLDY    55  41  59 E8        30.28S
BLOOMINGTON    PTCLDY    61  41  47 E9        30.26F
DECATUR        CLOUDY    61  53  75 S3        30.25R
PEORIA         PTCLDY    61  46  57 CALM      30.25S
LACON*         MOCLDY    58  38  47 CALM      30.25S
LINCOLN*       PTCLDY    61  51  70 CALM      30.24R
SPRINGFIELD    CLOUDY    60  54  80 CALM      30.25R
TAYLORVILLE    MOCLDY    59  55  88 CALM      30.25S
$$

ILZ033-039-045-046-055>057-062-063-230900-
EAST-CENTRAL ILLINOIS

CITY           SKY/WX    TMP DP  RH WIND       PRES   REMARKS
CHAMPAIGN      CLOUDY    60  43  53 E6        30.25F
DANVILLE*      CLOUDY    57  40  52 E7        30.25S
RANTOUL*       CLOUDY    61  42  50 E6        30.26S
MATTOON        CLOUDY    60  51  72 CALM      30.25R
PARIS*         CLOUDY    63  52  67 CALM      30.27S
$$

ILZ079-100>102-230900-
SOUTHWEST ILLINOIS

CITY           SKY/WX    TMP DP  RH WIND       PRES   REMARKS
ALTON          CLOUDY    60  60 100 CALM      30.26S
BELLEVILLE     MOCLDY    62  57  86 CALM      30.25S
CAHOKIA*       CLOUDY    62  56  80 CALM      30.25S
SPARTA*        CLOUDY    61  56  84 CALM      30.27S
$$

ILZ064>066-069>071-074>076-080>082-084>086-088>090-092>094-230900-
SOUTH-CENTRAL ILLINOIS

CITY           SKY/WX    TMP DP  RH WIND       PRES   REMARKS
CARBONDALE     CLOUDY    57  55  93 CALM      30.27R
CAIRO*         CLOUDY    59  58  96 CALM      30.27R
EFFINGHAM*     CLOUDY    59  52  79 CALM      30.28R
MARION         MOCLDY    59  57  94 CALM      30.28R
MT. VERNON     CLOUDY    55  52  88 CALM      30.29R
CENTRALIA*     CLOUDY    58  54  88 CALM      30.27S
SALEM*         CLOUDY    61  55  79 CALM      30.27S
METROPOLIS*    MOCLDY    56  56 100 CALM      30.26R
$$

ILZ067-068-072-073-078-083-087-091-230900-
SOUTHEAST ILLINOIS

CITY           SKY/WX    TMP DP  RH WIND       PRES   REMARKS
LAWRENCEVILLE  CLOUDY    60  54  80 CALM      30.28S
FLORA*         CLOUDY    59  54  83 CALM      30.28R
FAIRFIELD*     CLOUDY    58  55  89 CALM      30.27R
HARRISBURG*    CLOUDY    57  57 100 CALM      30.28S
ROBINSON*      CLOUDY    58  54  88 CALM      30.28F
CARMI*         CLOUDY    58  53  81 CALM      30.27R
$$

ABBREVIATIONS USED IN REMARKS
   TC - TEMPERATURE IN CELSIUS
  WCI - WIND CHILL INDEX
   HX - HEAT INDEX
  VSB - VISIBILITY
$$



USA.gov is the U.S. government's official web portal to all federal, state and local government web resources and services.